Location: Archemont
(49.1579°N, 1.7598°E)
Time: 12:45:14
(UTC+00:00)

Transit 2A - Pass Details

Date: 13 April 2024
Orbit: 593 x 958 km, 66.7° (Epoch: 30 May)

Event Time Altitude Azimuth Distance (km) Brightness Sun altitude
Rises 17:34:39 0° 316° (NW) 3,242 10.0 10.2°
Reaches altitude 10° 17:37:16 10° 304° (NW) 2,373 9.8 9.7°
Maximum altitude 17:41:48 27° 248° (WSW) 1,569 8.9 9.0°
Drops below altitude 10° 17:46:40 10° 193° (SSW) 2,554 8.9 8.2°
Sets 17:49:36 0° 182° (S) 3,538 9.4 7.7°
